千帆星座-112(QIANFAN-112)

导读

QIANFAN-112(NORAD编号68639)是中国“千帆星座”低轨互联网通信卫星星座中的一颗卫星,由上海垣信卫星科技有限公司负责建设运营。该卫星于2026年4月随长征八号系列火箭,从海南商业航天发射场发射入轨,是千帆星座一箭多星发射任务的组成部分。 千帆星座定位为中国版星链,目标建成全球覆盖的低轨宽带卫星互联网,弥补地面网络覆盖盲区,最终规划规模超万颗卫星,QIANFAN-112的入轨进一步推动了星座组网进程。

基本信息
目录编号:
68639
目录名称:
QIANFAN-112
国际标识:
2026-075D
轨道中心:
EARTH
卫星名称:
千帆星座-112
卫星全名:
千帆星座-112(QIANFAN-112)
卫星状态:
在轨 (已飞行157 天)
发射日期:
2026-04-07 UTC
国别 :
中国 (CN)
星等 :
--
该卫星已列入 空间交会检测服务 Space Conjunction Data Service (SCDS) ,当前飞行风险评估等级: 无高风险
轨道信息
数据来源 国际轨道数据 AOE轨道数据
星历时间 2026-09-11T13:40:27+0800
14小时前
查看轨道信息
2026-09-11T00:00:00+0800
1天前
查看轨道信息
半长轴 7446.635km 7446.632km
偏心率 0.0002523 0.0002566
轨道倾角 88.988° 88.990°
近地点辐角 89.121° 97.947°
升交点赤经 312.223° 312.283°
平近点角 271.023° 12.707°
近地点 1066.619km 1066.584km
远地点 1070.377km 1070.406km
周期 106.586分钟 106.586分钟
每日圈数 13.510228 13.510236
详细信息
卫星平台:
112
覆盖范围:
全球
运营商:
上海垣信卫星科技有限公司
运营商所在国:
中国
使用方式:
暂无
卫星简介
千帆星座,也被称为“G60星链”计划,是中国版“星链”的重要组成部分,旨在打造一个由1.4万多颗低轨宽频多媒体卫星构成的庞大星座。千帆星座计划由上海垣信卫星科技有限公司负责实施,于2023年启动建设。该项目是我国第二个低轨卫星大星座,旨在通过构建庞大的卫星网络,为全球用户提供高质量的通信和宽带互联网服务。
2D轨道图
3D轨道图
轨道高度分析图
轨道倾角分析图
轨道综合分析图
查看轨道综合分析图
与全量物体交会距离演化趋势
与全量物体交会风险概率演化趋势